Wahoo, NE

9:53 PM CDT on October 18, 2017 (GMT -0500)
Wahoo Municipal

Weather History for KAHQ - March, 2013

Change the Weather History Date:

Monday, March 4, 2013

  Actual Average Record
Temperature  
Mean Temperature 34 °F -  
Max Temperature 40 °F 43 °F 76 °F (1983)
Min Temperature 29 °F 22 °F -13 °F (1978)
Degree Days  
Heating Degree Days 30    
Moisture  
Dew Point 29 °F    
Average Humidity 80    
Maximum Humidity 96    
Minimum Humidity 60    
Precipitation  
Precipitation 0.00 in - - ()
Sea Level Pressure  
Sea Level Pressure 29.78 in    
Wind  
Wind Speed 9 mph (NNE)    
Max Wind Speed 20 mph    
Max Gust Speed 28 mph    
Visibility 10 miles    
Events Snow    
Averages and records for this station are not official NWS values.
T = Trace of Precipitation, MM = Missing Value Source: NWS Daily Summary

Daily Weather History Graph

Daily Weather History Graph

Search for Another Location

Airport or City:

Trip Planner

Search our weather history database for the weather conditions in past years. The results will help you decide how hot, cold, wet, or windy it might be!

Date:

Astronomy

Mar. 04, 2013 Rise Set
Actual Time 6:55 AM CST 6:21 PM CST
Civil Twilight 6:27 AM CST 6:48 PM CST
Nautical Twilight 5:56 AM CST 7:20 PM CST
Astronomical Twilight 5:24 AM CST 7:52 PM CST
Moon 1:08 AM CST (3/4) 11:01 AM CST (3/4)
Length of Visible Light 12h 20m
Length of Day
11h 25m
Waning Gibbous, 52% of the Moon is Illuminated
Mar 4
Waning Gibbous
Mar 4
Last Quarter
Mar 11
New
Mar 19
First Quarter
Mar 27
Full

Hourly Weather History & Observations

Time (CST) Temp. Windchill Dew Point Humidity Pressure Visibility Wind Dir Wind Speed Gust Speed Precip Events Conditions
12:15 AM 32.9 °F 23.7 °F 27.0 °F 79% 29.68 in 10.0 mi SE 12.7 mph - N/A   Clear
12:35 AM 32.2 °F 23.8 °F 27.0 °F 81% 29.68 in 10.0 mi SE 10.4 mph - N/A   Clear
12:55 AM 32.0 °F 23.0 °F 26.8 °F 81% 29.68 in 10.0 mi SE 11.5 mph - N/A   Clear
1:15 AM 32.0 °F 24.2 °F 26.8 °F 81% 29.67 in 10.0 mi SE 9.2 mph - N/A   Clear
1:35 AM 31.8 °F 25.4 °F 26.6 °F 81% 29.67 in 10.0 mi SE 6.9 mph - N/A   Clear
1:55 AM 31.8 °F 24.6 °F 26.8 °F 82% 29.67 in 10.0 mi SE 8.1 mph - N/A   Clear
2:15 AM 31.1 °F 23.1 °F 26.6 °F 83% 29.67 in 10.0 mi SE 9.2 mph - N/A   Clear
2:35 AM 30.9 °F 23.5 °F 26.6 °F 84% 29.66 in 10.0 mi SE 8.1 mph - N/A   Clear
2:55 AM 31.5 °F 24.2 °F 26.6 °F 82% 29.64 in 10.0 mi SE 8.1 mph - N/A   Clear
3:15 AM 31.5 °F 24.9 °F 27.0 °F 83% 29.65 in 10.0 mi SE 6.9 mph - N/A   Clear
3:35 AM 31.1 °F 25.4 °F 27.0 °F 85% 29.65 in 10.0 mi ESE 5.8 mph - N/A   Clear
3:55 AM 31.1 °F 23.7 °F 26.6 °F 83% 29.65 in 10.0 mi ESE 8.1 mph - N/A   Clear
4:15 AM 30.6 °F 24.7 °F 26.6 °F 85% 29.65 in 10.0 mi East 5.8 mph - N/A   Clear
4:35 AM 30.2 °F 22.6 °F 26.4 °F 86% 29.65 in 10.0 mi SE 8.1 mph - N/A   Clear
4:55 AM 30.6 °F 24.7 °F 26.4 °F 85% 29.67 in 10.0 mi East 5.8 mph - N/A   Clear
5:15 AM 29.8 °F 21.5 °F 26.2 °F 86% 29.65 in 10.0 mi SE 9.2 mph - N/A   Clear
5:35 AM 30.0 °F 25.2 °F 26.2 °F 86% 29.67 in 10.0 mi ESE 4.6 mph - N/A   Clear
6:15 AM 29.8 °F 24.9 °F 26.2 °F 86% 29.67 in 10.0 mi ESE 4.6 mph - N/A   Clear
6:35 AM 29.7 °F 26.1 °F 26.1 °F 86% 29.68 in 10.0 mi ESE 3.5 mph - N/A   Clear
6:55 AM 29.3 °F 25.6 °F 25.7 °F 86% 29.68 in 10.0 mi East 3.5 mph - N/A   Clear
7:15 AM 29.3 °F 25.6 °F 26.1 °F 88% 29.68 in 10.0 mi East 3.5 mph - N/A   Clear
7:35 AM 29.3 °F 25.6 °F 26.1 °F 88% 29.68 in 10.0 mi NE 3.5 mph - N/A   Clear
7:55 AM 31.1 °F 27.7 °F 27.0 °F 85% 29.69 in 10.0 mi NE 3.5 mph - N/A   Clear
8:15 AM 32.0 °F 28.7 °F 27.1 °F 82% 29.70 in 10.0 mi NE 3.5 mph - N/A   Clear
8:35 AM 33.4 °F - 27.1 °F 78% 29.71 in 10.0 mi Calm Calm - N/A   Clear
8:55 AM 34.9 °F 32.0 °F 27.5 °F 74% 29.71 in 10.0 mi East 3.5 mph - N/A   Clear
9:15 AM 35.6 °F - 27.3 °F 72% 29.72 in 10.0 mi Calm Calm - N/A   Clear
9:35 AM 35.8 °F - 27.1 °F 71% 29.72 in 10.0 mi Calm Calm - N/A   Clear
9:55 AM 36.7 °F 34.1 °F 28.0 °F 71% 29.72 in 10.0 mi ESE 3.5 mph - N/A   Scattered Clouds
10:15 AM 37.6 °F - 28.0 °F 68% 29.73 in 10.0 mi Calm Calm - N/A   Mostly Cloudy
10:35 AM 37.2 °F - 28.6 °F 71% 29.74 in 10.0 mi Calm Calm - N/A   Overcast
10:55 AM 38.1 °F 33.7 °F 29.3 °F 71% 29.74 in 10.0 mi North 5.8 mph - N/A   Overcast
11:15 AM 38.3 °F 31.4 °F 30.0 °F 72% 29.76 in 10.0 mi NW 10.4 mph - N/A   Overcast
11:35 AM 38.3 °F 30.9 °F 29.8 °F 72% 29.77 in 10.0 mi NW 11.5 mph - N/A   Overcast
11:55 AM 37.6 °F 29.6 °F 29.5 °F 73% 29.78 in 10.0 mi NW 12.7 mph - N/A   Overcast
12:15 PM 37.4 °F 29.8 °F 29.7 °F 74% 29.78 in 10.0 mi NNW 11.5 mph - N/A   Overcast
12:55 PM 36.9 °F 28.2 °F 30.0 °F 76% 29.78 in 10.0 mi NNW 13.8 mph 20.7 mph N/A   Overcast
1:15 PM 36.9 °F 26.5 °F 30.4 °F 77% 29.78 in 10.0 mi NNW 19.6 mph 24.2 mph N/A   Overcast
1:35 PM 36.9 °F 27.1 °F 30.7 °F 79% 29.77 in 10.0 mi North 17.3 mph - N/A   Overcast
1:55 PM 37.4 °F 27.5 °F 31.1 °F 78% 29.78 in 10.0 mi NNW 18.4 mph - N/A   Overcast
2:15 PM 37.2 °F 27.9 °F 30.9 °F 78% 29.77 in 10.0 mi North 16.1 mph 21.9 mph N/A   Overcast
2:35 PM 37.6 °F 28.4 °F 31.1 °F 77% 29.78 in 10.0 mi North 16.1 mph - N/A   Overcast
2:55 PM 39.4 °F 30.4 °F 32.0 °F 75% 29.77 in 10.0 mi North 17.3 mph 23.0 mph N/A   Overcast
3:15 PM 39.2 °F 29.8 °F 32.0 °F 75% 29.78 in 10.0 mi North 18.4 mph - N/A   Overcast
3:35 PM 39.6 °F 31.0 °F 31.8 °F 74% 29.78 in 10.0 mi North 16.1 mph 23.0 mph N/A   Overcast
3:55 PM 38.7 °F 30.1 °F 31.5 °F 75% 29.79 in 10.0 mi North 15.0 mph - N/A   Overcast
4:15 PM 40.1 °F 31.6 °F 32.0 °F 73% 29.80 in 10.0 mi North 16.1 mph - N/A   Mostly Cloudy
4:35 PM 38.7 °F 30.1 °F 31.1 °F 74% 29.82 in 10.0 mi North 15.0 mph - N/A   Mostly Cloudy
4:55 PM 37.9 °F 27.9 °F 31.3 °F 77% 29.84 in 10.0 mi NNW 19.6 mph 25.3 mph N/A   Overcast
5:15 PM 37.4 °F 29.3 °F 31.6 °F 80% 29.86 in 10.0 mi North 12.7 mph - N/A   Overcast
5:35 PM 37.4 °F 28.9 °F 31.5 °F 79% 29.88 in 10.0 mi NNW 13.8 mph - N/A   Overcast
5:55 PM 36.9 °F 27.5 °F 31.5 °F 81% 29.88 in 10.0 mi North 16.1 mph - N/A   Overcast
6:15 PM 36.5 °F 28.7 °F 31.3 °F 81% 29.91 in 10.0 mi North 11.5 mph - N/A   Overcast
6:35 PM 35.8 °F 28.8 °F 31.1 °F 83% 29.93 in 10.0 mi North 9.2 mph - N/A   Overcast
6:55 PM 35.4 °F 29.0 °F 30.6 °F 82% 29.95 in 10.0 mi NNW 8.1 mph - N/A   Overcast
7:15 PM 34.9 °F 27.7 °F 30.2 °F 83% 29.97 in 10.0 mi NNW 9.2 mph - N/A   Overcast
7:35 PM 35.6 °F 29.2 °F 30.0 °F 80% 29.98 in 7.0 mi NNW 8.1 mph - N/A Snow Light Snow
7:55 PM 33.6 °F 24.6 °F 31.3 °F 91% 29.97 in 2.5 mi North 12.7 mph - N/A Snow Light Snow
8:35 PM 32.9 °F 25.3 °F 31.8 °F 96% 29.97 in 7.0 mi North 9.2 mph - N/A   Overcast
8:55 PM 33.1 °F 26.1 °F 31.6 °F 94% 29.98 in 7.0 mi North 8.1 mph - N/A   Overcast
9:15 PM 32.9 °F 27.5 °F 31.3 °F 94% 29.99 in 7.0 mi North 5.8 mph - N/A   Mostly Cloudy
9:35 PM 32.5 °F 28.1 °F 31.1 °F 94% 30.01 in 7.0 mi NW 4.6 mph - N/A   Mostly Cloudy
9:55 PM 32.4 °F 26.9 °F 31.1 °F 95% 30.01 in 7.0 mi NW 5.8 mph - N/A   Overcast
10:15 PM 32.9 °F 25.3 °F 31.6 °F 95% 30.02 in 7.0 mi NNW 9.2 mph - N/A   Overcast
10:55 PM 33.8 °F 23.5 °F 22.8 °F 64% 30.04 in 10.0 mi NW 16.1 mph 26.5 mph N/A   Overcast
11:35 PM 32.4 °F 21.7 °F 19.8 °F 60% 30.04 in 10.0 mi WNW 16.1 mph 23.0 mph N/A   Overcast
11:55 PM 32.0 °F 20.1 °F 20.1 °F 62% 30.04 in 10.0 mi WNW 19.6 mph 27.6 mph N/A   Overcast